Other Surface Observations
Issued by NWS Charleston, SC

Home | Current Version | Previous Version | Text Only | Print | Product List | Glossary On
Versions: 1 2 3 4 5 6 7 8 9 10 11 12 13 14 15 16 17 18 19 20 21 22 23 24 25 26 27 28 29 30 31 32 33 34 35 36 37 38 39 40 41 42 43 44 45 46 47 48 49 50
000
SXUS52 KCHS 301725
OSOCHS

MARINE OBSERVATIONS
NATIONAL WEATHER SERVICE CHARLESTON SC
100 PM EDT THU OCT 30 2014

...DOWNTOWN CHARLESTON AND HARBOR...

CITY           SKY/WX    TMP DP  RH WIND       PRES   REMARKS
WATERFRONT PRK   N/A     70 N/A N/A N7          N/A
FORT JOHNSON   NOT AVBL

...LAKE MOULTRIE...

CITY           SKY/WX    TMP DP  RH WIND       PRES   REMARKS
PINOPOLIS      NOT AVBL

...LAKE AND SUPPLEMENTAL COASTAL OBSERVATIONS...

STATION/POSITION TIME  TEMP    WIND        PRES    WAVE   SWELL
                       AIR SEA DIR/SP/G            HT/PER HT/PER/DIR
                 (UTC) (F)     (DEG/KT/KT) (MB)    (FT/S) (FT/S/D)
FORT PULASKI     1700   67     360/  8/ 10 1015.3F
SAPELO ISLAND    NOT AVBL
UPR LAKE MARION  NOT AVBL
WINYAH BAY       1700   61     350/  5     1016.0S
LAKE MURRAY      1700   65      50/  3/  8 1016.6S
ACE BASIN NERRS  1700   72      20/  3     1015.0S


...C-MAN AND BUOY OBSERVATIONS...

STATION/POSITION TIME  TEMP    WIND        PRES    WAVE   SWELL
                       AIR SEA DIR/SP/G            HT/PER HT/PER/DIR
                 (UTC) (F)     (DEG/KT/KT) (MB)    (FT/S) (FT/S/D)
BUOY 41004       1700   69 77   10/ 14/ 17 1013.6F   3/ 5
BUOY 41008       1700   69 74   10/  6/ 10 1014.6F   1/ 4
FOLLY BEACH CMAN 1700   68      50/  9/ 11 1015.3F
CAPERS NS BUOY   1600   65      30/ 10/ 14   N/A
FRIPP NS BUOY    NOT AVBL
5E ST. MARYS GA  1700      76                N/A     2/ 4
FRYING PAN BUOY  1700   67 72   30/ 16/ 19 1014.5F   4/ 5
BUOY 41025       1700   67     360/ 17/ 21 1014.2F   4/ 5
CAPE LOOKOUT NC  1700   64      20/ 16/ 22 1014.8F
BUOY 41002       1631   77 77  250/  8/ 10 1014.1F   2/ 6   2/ 10/ 6
BUOY 41010       1700   79 82   10/  2/  4 1014.3F   3/ 7   3/100/ 7
BUOY 41012       NOT AVBL
ST AUGUSTINE FL  1700   71      30/  7/  8 1015.2F


$$



USA.gov is the U.S. government's official web portal to all federal, state and local government web resources and services.